Location: Mountain View
(37.3861°N, 122.0839°W)
Time: 03:52:17
(UTC-08:00)

Tiangong - Visible Passes

Search period start: 29 November 2022 00:00
Search period end: 09 December 2022 00:00
Orbit: 385 x 393 km, 41.5° (Epoch: 29 November)

Date Brightness Start Highest point End Pass type
(mag) Time Alt. Az. Time Alt. Az. Time Alt. Az.
29 Nov -0.9 17:39:23 10° SW 17:42:14 31° SSE 17:44:24 15° E visible
29 Nov 1.0 19:15:56 10° W 19:16:43 16° W 19:16:43 16° W visible
30 Nov -2.2 18:17:44 10° WSW 18:20:55 84° NNW 18:21:24 61° ENE visible
01 Dec -1.8 17:19:38 10° SW 17:22:46 60° SSE 17:25:55 10° ENE visible
01 Dec 0.1 18:56:44 10° W 18:58:20 25° WNW 18:58:20 25° WNW visible
02 Dec -1.8 17:58:22 10° W 18:01:30 54° NNW 18:02:53 28° NE visible
03 Dec -0.8 18:37:23 10° WNW 18:39:42 32° NNW 18:39:42 32° NNW visible
04 Dec -1.4 17:38:56 10° W 17:41:58 41° N 17:44:11 16° ENE visible
04 Dec 1.1 19:16:10 10° WNW 19:16:29 12° WNW 19:16:29 12° WNW visible
05 Dec -1.4 18:17:47 10° WNW 18:20:48 38° N 18:20:57 38° NNE visible
06 Dec -1.3 17:19:19 10° WNW 17:22:18 37° N 17:25:18 10° ENE visible
06 Dec 0.1 18:56:22 10° WNW 18:57:43 23° WNW 18:57:43 23° WNW visible
07 Dec -1.7 17:57:57 10° WNW 18:01:02 45° N 18:02:13 29° ENE visible
08 Dec -1.7 18:36:24 10° WNW 18:39:07 62° WNW 18:39:07 62° WNW visible
